User: anonymous   Login
Location: Oshawa
(43.9000°N, 78.8670°W)
Time: 13:21:07
(UTC-04:00)
Language:

Cosmos 2333 Rocket - Orbit

View from above orbital plane
View from above orbital plane
View from above satellite
View from above satellite

Ground track
Ground track

The orbit data is extracted from the following two-line orbital elements,

1 24298U 96051B   15088.28052772 -.00000134  00000-0 -46289-4 0  9994
2 24298 070.8507 331.4817 0017766 302.4704 196.3364 14.12429761957323
Epoch (UTC): 29 March 2015 06:43:57
Eccentricity: 0.0017766
inclination: 70.8507°
perigee height: 838 km
apogee height: 864 km
right ascension of ascending node: 331.4817°
argument of perigee: 302.4704°
revolutions per day: 14.12429761
mean anomaly at epoch: 196.3364°
orbit number at epoch: 95732

The dashed part of the orbit path shows where the satellite is in the earth's shadow,  

DLR